• în România
  • Lista ţărilor
  • Pe 7 zile
  • Temperatura apei
  • Hartă satelitară
  • Meteo pe hartă
  • Widget-uri
  • user-avatar
    Intrare

    Meteo pe oră la Rogatyy Prud

    Astăzi, 16 Iulie, Luni

    Timp Temperatura Precipitaţii Vânt Presiune Umiditate
    00:00 +22°C° 0,7 mm 1 m/s 739 mmHg 84%
    01:00 +22°C° 1,3 mm 1 m/s 739 mmHg 87%
    02:00 +20°C° 1,3 mm 2 m/s 739 mmHg 89%
    03:00 +20°C° 0 mm 2 m/s 739 mmHg 92%
    04:00 +20°C° 0,3 mm 2 m/s 739 mmHg 91%
    05:00 +20°C° 0,3 mm 2 m/s 739 mmHg 90%
    06:00 +21°C° 0,3 mm 3 m/s 738 mmHg 89%
    07:00 +22°C° 0 mm 3 m/s 738 mmHg 83%
    08:00 +25°C° 0 mm 3 m/s 739 mmHg 77%
    09:00 +27°C° 0 mm 3 m/s 739 mmHg 71%
    10:00 +28°C° 0,4 mm 3 m/s 738 mmHg 67%
    11:00 +29°C° 0,4 mm 3 m/s 738 mmHg 63%
    12:00 +29°C° 0,4 mm 3 m/s 737 mmHg 60%
    13:00 +29°C° 1,5 mm 4 m/s 737 mmHg 62%
    14:00 +29°C° 1,5 mm 4 m/s 737 mmHg 64%
    15:00 +29°C° 1,5 mm 5 m/s 737 mmHg 66%
    16:00 +28°C° 0,5 mm 4 m/s 737 mmHg 70%
    17:00 +28°C° 0,5 mm 3 m/s 737 mmHg 73%
    18:00 +27°C° 0,5 mm 3 m/s 737 mmHg 76%
    19:00 +26°C° 0,3 mm 3 m/s 737 mmHg 79%
    20:00 +25°C° 0,3 mm 3 m/s 737 mmHg 82%
    21:00 +22°C° 0,3 mm 3 m/s 736 mmHg 84%
    22:00 +22°C° 0,2 mm 3 m/s 736 mmHg 86%
    23:00 +21°C° 0,2 mm 3 m/s 736 mmHg 88%

    Mâine, 17 Iulie, Marţi

    Timp Temperatura Precipitaţii Vânt Presiune Umiditate
    00:00 +21°C° 0,2 mm 3 m/s 736 mmHg 90%
    01:00 +20°C° 0,2 mm 3 m/s 736 mmHg 91%
    02:00 +20°C° 0,2 mm 4 m/s 736 mmHg 92%
    03:00 +20°C° 0,2 mm 4 m/s 735 mmHg 92%
    04:00 +20°C° 1,3 mm 4 m/s 735 mmHg 93%
    05:00 +20°C° 1,3 mm 4 m/s 735 mmHg 94%
    06:00 +20°C° 1,3 mm 5 m/s 735 mmHg 95%
    07:00 +21°C° 0,3 mm 5 m/s 734 mmHg 91%
    08:00 +21°C° 0,3 mm 6 m/s 734 mmHg 88%
    09:00 +22°C° 0,3 mm 7 m/s 734 mmHg 85%
    10:00 +22°C° 0,4 mm 6 m/s 734 mmHg 84%
    11:00 +22°C° 0,4 mm 6 m/s 734 mmHg 84%
    12:00 +23°C° 0,4 mm 6 m/s 734 mmHg 83%
    13:00 +22°C° 0,6 mm 5 m/s 734 mmHg 85%
    14:00 +22°C° 0,6 mm 5 m/s 733 mmHg 87%
    15:00 +22°C° 0,6 mm 4 m/s 733 mmHg 90%
    16:00 +21°C° 0,5 mm 4 m/s 733 mmHg 90%
    17:00 +21°C° 0,5 mm 4 m/s 733 mmHg 91%
    18:00 +21°C° 0,5 mm 3 m/s 733 mmHg 91%
    19:00 +21°C° 0,3 mm 3 m/s 733 mmHg 93%
    20:00 +20°C° 0,3 mm 3 m/s 733 mmHg 95%
    21:00 +19°C° 0,3 mm 2 m/s 732 mmHg 96%
    22:00 +19°C° 0,2 mm 2 m/s 732 mmHg 97%
    23:00 +19°C° 0,2 mm 2 m/s 732 mmHg 97%

    Poimâine, 18 Iulie, Miercuri

    Timp Temperatura Precipitaţii Vânt Presiune Umiditate
    00:00 +19°C° 0,2 mm 2 m/s 732 mmHg 97%
    01:00 +19°C° 0,6 mm 2 m/s 732 mmHg 97%
    02:00 +19°C° 0,6 mm 2 m/s 732 mmHg 97%
    03:00 +19°C° 0,6 mm 3 m/s 732 mmHg 97%
    04:00 +19°C° 0,7 mm 3 m/s 732 mmHg 97%
    05:00 +19°C° 0,7 mm 3 m/s 732 mmHg 97%
    06:00 +19°C° 0,7 mm 3 m/s 732 mmHg 96%
    07:00 +19°C° 0,8 mm 4 m/s 732 mmHg 95%
    08:00 +19°C° 0,8 mm 4 m/s 732 mmHg 94%
    09:00 +20°C° 0,8 mm 5 m/s 732 mmHg 93%
    10:00 +20°C° 0,7 mm 5 m/s 733 mmHg 91%
    11:00 +20°C° 0,7 mm 6 m/s 733 mmHg 90%
    12:00 +20°C° 0,7 mm 7 m/s 733 mmHg 88%
    13:00 +20°C° 0,4 mm 7 m/s 734 mmHg 87%
    14:00 +20°C° 0,4 mm 7 m/s 734 mmHg 86%
    15:00 +20°C° 0,4 mm 7 m/s 734 mmHg 85%
    16:00 +21°C° 0,5 mm 6 m/s 734 mmHg 84%
    17:00 +21°C° 0,5 mm 6 m/s 735 mmHg 83%
    18:00 +22°C° 0,5 mm 6 m/s 735 mmHg 82%
    19:00 +21°C° 0,3 mm 5 m/s 735 mmHg 84%
    20:00 +20°C° 0,3 mm 5 m/s 735 mmHg 86%
    21:00 +20°C° 0,3 mm 5 m/s 735 mmHg 89%
    22:00 +19°C° 0,2 mm 5 m/s 735 mmHg 89%
    23:00 +19°C° 0,2 mm 5 m/s 735 mmHg 90%

    19 Iulie, Joi

    Timp Temperatura Precipitaţii Vânt Presiune Umiditate
    00:00 +19°C° 0,2 mm 5 m/s 735 mmHg 90%
    01:00 +19°C° 0,6 mm 5 m/s 735 mmHg 91%
    02:00 +19°C° 0,6 mm 5 m/s 736 mmHg 91%
    03:00 +19°C° 0,6 mm 4 m/s 736 mmHg 92%
    04:00 +19°C° 0,8 mm 4 m/s 736 mmHg 92%
    05:00 +19°C° 0,8 mm 4 m/s 736 mmHg 92%
    06:00 +19°C° 0,8 mm 5 m/s 736 mmHg 92%
    07:00 +20°C° 0,6 mm 5 m/s 737 mmHg 91%
    08:00 +20°C° 0,6 mm 5 m/s 737 mmHg 89%
    09:00 +21°C° 0,6 mm 5 m/s 737 mmHg 88%
    10:00 +23°C° 0,2 mm 5 m/s 737 mmHg 82%
    11:00 +24°C° 0,2 mm 6 m/s 738 mmHg 75%
    12:00 +27°C° 0,2 mm 6 m/s 738 mmHg 69%
    13:00 +27°C° 0,6 mm 6 m/s 738 mmHg 67%
    14:00 +28°C° 0,6 mm 6 m/s 738 mmHg 65%
    15:00 +28°C° 0,6 mm 6 m/s 738 mmHg 64%
    16:00 +28°C° 0,2 mm 5 m/s 739 mmHg 66%
    17:00 +28°C° 0,2 mm 4 m/s 739 mmHg 69%
    18:00 +28°C° 0,2 mm 2 m/s 739 mmHg 72%
    19:00 +26°C° 0,1 mm 2 m/s 739 mmHg 75%
    20:00 +25°C° 0,1 mm 2 m/s 739 mmHg 78%
    21:00 +24°C° 0,1 mm 2 m/s 739 mmHg 81%
    22:00 +23°C° 0,2 mm 2 m/s 740 mmHg 83%
    23:00 +23°C° 0,2 mm 2 m/s 740 mmHg 84%

    20 Iulie, Vineri

    Timp Temperatura Precipitaţii Vânt Presiune Umiditate
    00:00 +21°C° 0,2 mm 3 m/s 740 mmHg 85%
    01:00 +21°C° 0,6 mm 3 m/s 740 mmHg 87%
    02:00 +20°C° 0,6 mm 3 m/s 740 mmHg 89%
    03:00 +20°C° 0,6 mm 3 m/s 740 mmHg 91%
    04:00 +20°C° 1 mm 3 m/s 740 mmHg 91%
    05:00 +20°C° 1 mm 2 m/s 740 mmHg 91%
    06:00 +21°C° 1 mm 2 m/s 740 mmHg 91%
    07:00 +22°C° 0,3 mm 3 m/s 740 mmHg 86%
    08:00 +24°C° 0,3 mm 3 m/s 740 mmHg 82%
    09:00 +26°C° 0,3 mm 4 m/s 740 mmHg 78%
    10:00 +27°C° 0,2 mm 4 m/s 740 mmHg 73%
    11:00 +28°C° 0,2 mm 4 m/s 740 mmHg 68%
    12:00 +29°C° 0,2 mm 4 m/s 740 mmHg 64%
    13:00 +30°C° 0 mm 3 m/s 740 mmHg 61%
    14:00 +30°C° 0 mm 3 m/s 740 mmHg 57%
    15:00 +31°C° 0 mm 2 m/s 740 mmHg 54%
    16:00 +31°C° 0,2 mm 2 m/s 740 mmHg 57%
    17:00 +31°C° 0,2 mm 1 m/s 740 mmHg 60%
    18:00 +31°C° 0,2 mm 1 m/s 740 mmHg 62%
    19:00 +29°C° 0,1 mm 1 m/s 740 mmHg 65%
    20:00 +27°C° 0,1 mm 1 m/s 740 mmHg 69%
    21:00 +23°C° 0,1 mm 0 m/s 740 mmHg 72%
    22:00 +24°C° 0,5 mm 1 m/s 740 mmHg 75%
    23:00 +24°C° 0,5 mm 1 m/s 740 mmHg 79%

    21 Iulie, Sâmbătă

    Timp Temperatura Precipitaţii Vânt Presiune Umiditate
    00:00 +23°C° 0,5 mm 1 m/s 740 mmHg 82%
    01:00 +21°C° 1,2 mm 2 m/s 740 mmHg 86%
    02:00 +21°C° 1,2 mm 3 m/s 740 mmHg 89%
    03:00 +20°C° 1,2 mm 3 m/s 741 mmHg 92%
    04:00 +21°C° 0 mm 3 m/s 740 mmHg 91%
    05:00 +21°C° 0 mm 3 m/s 740 mmHg 90%
    06:00 +21°C° 0 mm 3 m/s 740 mmHg 89%
    07:00 +24°C° 0 mm 3 m/s 740 mmHg 81%
    08:00 +26°C° 0 mm 2 m/s 740 mmHg 74%
    09:00 +28°C° 0 mm 2 m/s 740 mmHg 66%
    10:00 +29°C° 0,3 mm 2 m/s 740 mmHg 62%
    11:00 +30°C° 0,3 mm 2 m/s 740 mmHg 59%
    12:00 +31°C° 0,3 mm 2 m/s 740 mmHg 55%
    13:00 +31°C° 0,2 mm 2 m/s 740 mmHg 54%
    14:00 +31°C° 0,2 mm 2 m/s 740 mmHg 54%
    15:00 +32°C° 0,2 mm 2 m/s 740 mmHg 54%
    16:00 +31°C° 0 mm 2 m/s 740 mmHg 58%
    17:00 +30°C° 0 mm 2 m/s 740 mmHg 61%
    18:00 +30°C° 0 mm 2 m/s 740 mmHg 65%
    19:00 +28°C° 0,1 mm 2 m/s 740 mmHg 69%
    20:00 +27°C° 0,1 mm 1 m/s 740 mmHg 72%
    21:00 +25°C° 0,1 mm 1 m/s 740 mmHg 75%
    22:00 +25°C° 0,8 mm 2 m/s 740 mmHg 79%
    23:00 +24°C° 0,8 mm 2 m/s 740 mmHg 82%
    Arată mai mult